This demonstration page uses our WeatherBlox Daily Observations layout. Learn more.

Left ArrowRight Arrow

39.51506, -84.39828

Hourly Observations for May 12, 2021

Temp ( °F °C ) Dew Point ( °F °C ) Humidity (%) Winds ( mph kmh ) Pressure ( in mb ) Visibility ( mi km ) Precip ( " mm )
12:15 am 00:15 Clear 41 5.2 37 2.8 85 85 NNE 7 11 30.37 1028 10 16.0934 N/A
12:35 am 00:35 Clear 42 5.5 38 3.1 85 85 NNE 3 6 30.38 1029 10 16.0934 N/A
12:55 am 00:55 Clear 42 5.8 36 2.4 79 79 NE 3 6 30.38 1029 10 16.0934 N/A
1:15 am 01:15 Clear 42 5.7 38 3.2 84 84 N N/A 30.38 1029 10 16.0934 N/A
1:35 am 01:35 Clear 42 5.8 39 3.7 87 87 N N/A 30.37 1028 10 16.0934 N/A
1:55 am 01:55 Clear 43 6.1 36 2.3 77 77 N N/A 30.37 1028 10 16.0934 N/A
2:15 am 02:15 Clear 42 5.7 36 2 77 77 NNE 5 7 30.37 1028 10 16.0934 N/A
2:35 am 02:35 Clear 42 5.5 35 1.9 78 78 NNE 7 11 30.37 1028 10 16.0934 N/A
2:55 am 02:55 Clear 41 5.2 35 1.7 78 78 NNE 6 9 30.37 1028 10 16.0934 N/A
3:15 am 03:15 Clear 41 5.2 35 1.7 78 78 N N/A 30.37 1028 10 16.0934 N/A
3:35 am 03:35 Clear 40 4.2 36 2.1 86 86 N N/A 30.37 1029 10 16.0934 N/A
3:55 am 03:55 Clear 41 4.9 36 2 82 82 N N/A 30.37 1029 10 16.0934 N/A
4:15 am 04:15 Clear 41 4.9 35 1.7 80 80 NE 3 6 30.38 1029 10 16.0934 N/A
4:35 am 04:35 Clear 40 4.5 35 1.5 81 81 ENE 5 7 30.38 1029 10 16.0934 N/A
4:55 am 04:55 Clear 40 4.5 35 1.6 82 82 NE 3 6 30.39 1029 10 16.0934 N/A
5:15 am 05:15 Clear 39 3.9 37 2.6 91 91 N N/A 30.4 1029 10 16.0934 N/A
5:35 am 05:35 Clear 39 3.8 36 2.4 91 91 N N/A 30.41 1030 10 16.0934 N/A
5:55 am 05:55 Clear 38 3.5 36 2.2 91 91 N N/A 30.41 1030 10 16.0934 N/A
6:15 am 06:15 Clear 38 3.3 36 2.3 93 93 NNE 3 6 30.42 1030 10 16.0934 N/A
6:35 am 06:35 Sunny 38 3.1 35 1.8 91 91 NE 3 6 30.42 1030 10 16.0934 N/A
6:55 am 06:55 Sunny 38 3.4 35 1.8 89 89 N N/A 30.43 1030 10 16.0934 N/A
7:15 am 07:15 Sunny 39 3.8 35 1.8 87 87 NE 3 6 30.44 1031 10 16.0934 N/A
7:35 am 07:35 Sunny 41 5 36 2.4 83 83 NE 6 9 30.43 1031 10 16.0934 N/A
7:55 am 07:55 Sunny 43 5.9 37 2.5 79 79 NE 8 13 30.43 1030 10 16.0934 N/A
8:15 am 08:15 Sunny 44 6.5 36 2.3 75 75 NE 7 11 30.44 1031 10 16.0934 N/A
8:35 am 08:35 Sunny 45 7.4 37 2.6 72 72 NE 7 11 30.44 1031 10 16.0934 N/A
8:55 am 08:55 Sunny 47 8.6 38 3.1 69 69 ENE 8 13 30.43 1031 10 16.0934 N/A
9:15 am 09:15 Sunny 49 9.4 36 2.4 62 62 ENE 8 13 30.43 1030 10 16.0934 N/A
9:35 am 09:35 Sunny 51 10.6 37 2.6 58 58 ENE 9 15 30.43 1030 10 16.0934 N/A
9:55 am 09:55 Sunny 53 11.4 37 2.5 55 55 ENE 9 15 30.44 1031 10 16.0934 N/A
10:15 am 10:15 Sunny 53 11.8 34 1.3 49 49 ENE 9 15 30.42 1030 10 16.0934 N/A
10:35 am 10:35 Sunny 55 12.7 35 1.5 47 47 E 10 17 30.42 1030 10 16.0934 N/A
10:55 am 10:55 Sunny 56 13.3 34 1.1 44 44 ENE 12 19 30.41 1030 10 16.0934 N/A
11:15 am 11:15 Sunny 56 13.2 33 0.6 42 42 ENE 13 20 30.41 1030 10 16.0934 N/A
11:35 am 11:35 Sunny 56 13.6 34 1.2 43 43 ENE 10 17 30.41 1030 10 16.0934 N/A
11:55 am 11:55 Sunny 57 13.9 34 0.9 41 41 ENE 9 15 30.41 1030 10 16.0934 N/A
12:15 pm 12:15 Sunny 58 14.3 35 1.7 43 43 N 12 19 30.4 1029 10 16.0934 N/A
12:35 pm 12:35 Sunny 58 14.5 34 0.9 40 40 E 13 20 30.4 1029 10 16.0934 N/A
12:55 pm 12:55 Sunny 58 14.7 35 1.7 42 42 NNE 10 17 30.4 1029 10 16.0934 N/A
1:15 pm 13:15 Sunny 59 14.8 34 1.2 40 40 NNE 9 15 30.39 1029 10 16.0934 N/A
1:35 pm 13:35 Sunny 59 15.2 35 1.9 41 41 NE 12 19 30.38 1029 10 16.0934 N/A
1:55 pm 13:55 Partly Cloudy 60 15.3 35 1.8 40 40 NNE 7 11 30.38 1029 10 16.0934 N/A
2:15 pm 14:15 Partly Cloudy 60 15.5 36 2 40 40 E 5 7 30.38 1029 10 16.0934 N/A
2:35 pm 14:35 Partly Cloudy 61 16 35 1.8 39 39 ENE 8 13 30.36 1028 10 16.0934 N/A
2:55 pm 14:55 Partly Cloudy 61 15.9 35 1.4 38 38 ENE 9 15 30.36 1028 10 16.0934 N/A
3:15 pm 15:15 Partly Cloudy 60 15.6 35 1.4 38 38 NNE 6 9 30.36 1028 10 16.0934 N/A
3:35 pm 15:35 Mostly Cloudy 60 15.8 35 1.8 39 39 ENE 12 19 30.35 1028 10 16.0934 N/A
3:55 pm 15:55 Sunny 62 16.6 36 2.1 38 38 ENE 17 28 30.35 1028 10 16.0934 N/A
4:15 pm 16:15 Partly Cloudy 63 17.1 35 1.4 35 35 E 6 9 30.34 1027 10 16.0934 N/A
4:35 pm 16:35 Partly Cloudy 63 17 36 2.1 37 37 E 6 9 30.34 1027 10 16.0934 N/A
4:55 pm 16:55 Partly Cloudy 59 15.2 34 1 38 38 E 9 15 30.34 1027 10 16.0934 N/A
5:15 pm 17:15 Cloudy 61 16.1 34 0.9 36 36 NE 12 19 30.33 1027 10 16.0934 N/A
5:35 pm 17:35 Mostly Cloudy 62 16.5 34 0.9 35 35 E 13 20 30.33 1027 10 16.0934 N/A
5:55 pm 17:55 Partly Cloudy 62 16.9 35 1.4 35 35 NE 14 22 30.32 1027 10 16.0934 N/A
6:15 pm 18:15 Mostly Cloudy 62 16.4 34 1.2 36 36 NE 13 20 30.32 1027 10 16.0934 N/A
6:35 pm 18:35 Mostly Cloudy 62 16.6 34 1.2 36 36 NNE 9 15 30.32 1027 10 16.0934 N/A
6:55 pm 18:55 Cloudy 62 16.6 35 1.6 37 37 NE 16 26 30.32 1027 10 16.0934 N/A
7:15 pm 19:15 Partly Cloudy 61 15.9 33 0.7 36 36 NE 13 20 30.32 1027 10 16.0934 N/A
7:35 pm 19:35 Sunny 59 15.1 35 1.6 40 40 NNE 13 20 30.33 1027 10 16.0934 N/A
7:55 pm 19:55 Sunny 58 14.7 35 1.6 41 41 NE 8 13 30.33 1027 10 16.0934 N/A
8:15 pm 20:15 Mostly Cloudy 58 14.4 36 2 43 43 NE 8 13 30.33 1027 10 16.0934 N/A
8:35 pm 20:35 Sunny 56 13.4 35 1.9 46 46 NE 7 11 30.34 1027 10 16.0934 N/A
8:55 pm 20:55 Clear 55 12.6 36 2 49 49 NE 6 9 30.34 1028 10 16.0934 N/A
9:15 pm 21:15 Clear 53 11.9 35 1.9 51 51 NE 6 9 30.35 1028 10 16.0934 N/A
9:35 pm 21:35 Clear 53 11.4 36 2.3 54 54 NNE 5 7 30.36 1028 10 16.0934 N/A
9:55 pm 21:55 Clear 50 10.2 38 3.1 62 62 NNE 3 6 30.37 1028 10 16.0934 N/A
10:15 pm 22:15 Clear 51 10.5 37 2.7 59 59 NNE 5 7 30.38 1029 10 16.0934 N/A
10:35 pm 22:35 Clear 50 10.1 37 2.6 60 60 NNE 5 7 30.39 1029 10 16.0934 N/A
10:55 pm 22:55 Clear 49 9.2 37 2.6 64 64 NNE 6 9 30.39 1029 10 16.0934 N/A
11:15 pm 23:15 Clear 48 9.1 37 2.5 64 64 NNE 6 9 30.39 1029 10 16.0934 N/A
11:35 pm 23:35 Clear 48 8.8 36 2.3 64 64 NNE 6 9 30.39 1029 10 16.0934 N/A
11:55 pm 23:55 Clear 46 7.7 40 4.3 79 79 N N/A 30.4 1029 10 16.0934 N/A

Powered by AerisWeather